Weather in Qena

Egypt     26°09′31″N   32°43′16″E
temp.,
°C
wind,
m/s
gust,
m/s
humid.,
%
clouds,
%
prec.,
mm/h
press.,
hPa
HPBL,
m
26 june, sun
sun2623:00+32nnw610180 0.0 1006214
02:00+29nnw46230 0.0 1007103
05:00+27nnw35340 0.0 100888
08:00+31nnw45270 0.0 1009672
11:00+36wnw34120 0.0 10071693
14:00+40wnw5560 0.0 10052205
17:00+40nw6670 0.0 10042423
20:00+35nw610100 0.0 1006158
27 june, mon
mon2723:00+31n611140 0.0 1007211
02:00+29nnw33240 0.0 100742
05:00+27nnw34280 0.0 100742
08:00+32n46210 0.0 1008625
11:00+39n67130 0.0 10071690
14:00+42nnw6690 0.0 10042908
17:00+41nw6690 0.0 10033053
20:00+36nnw914150 0.0 1006370
28 june, tue
tue2823:00+33n59190 0.0 1006177
02:00+30nnw59240 0.0 1006190
05:00+28n59300 0.0 1007157
08:00+33n47210 0.0 1007654
11:00+38nw77130 0.0 10062205
14:00+40nw88110 0.0 10042470
17:00+38nw88110 0.0 10042382
20:00+33nw45160 0.0 100660
29 june, wed
wed2923:00+31nnw45210 0.0 100752
02:00+29nw33240 0.0 100621
05:00+27nnw33290 0.0 100721
08:00+32nnw24270 0.0 1007581
11:00+37nw66160 0.0 10062350
14:00+39wnw66130 0.0 10042658
17:00+38wnw88120 0.0 10042526
20:00+33nw46170 0.0 100671
30 june, thu
thu3023:00+31nw44210 0.0 100740
02:00+29nnw45260 0.0 100662
05:00+28n33300 0.0 100624
08:00+32n24240 0.0 1007631
11:00+38wnw67140 0.0 10062295
14:00+40wnw67110 0.0 10042971
17:00+39wnw78130 0.0 10042962
20:00+35nw610220 0.0 1005193